QPF
0.00 0.00 0.00 0.00 0.00 0.00 0.00 0.00 0.00 0.00 0.00 0.00 0.00 0.00 0.00 0.00 0.00 0.00 0.00 0.00 0.00 0.00 0.00 0.00 0.00 0.00 0.00 0.00 0.00 0.00 0.00 0.00 0.00 0.00 0.00 0.01 0.00 0.00 0.00 0.00 0.00 0.01 0.00 0.00
0.00 0.00 0.00 0.00 0.00 0.00 0.00 0.00 0.00 0.00 0.00 0.00 0.00 0.00 0.00 0.00 0.00 0.00 0.00 0.00 0.00 0.00 0.00 0.00 0.00 0.00 0.00 0.00 0.00 0.00 0.00 0.00 0.00 0.00 0.00 0.00 0.00 0.00 0.00 0.00 0.00 0.00 0.00 0.00
0.00 0.00 0.00 0.00 0.00 0.00 0.00 0.00 0.00 0.00 0.00 0.02 0.00 0.00 0.00 0.00 0.00 0.00 0.00 0.00 0.00 0.00 0.00 0.00 0.00 0.00 0.00 0.00 0.00 0.00 0.00 0.00 0.00 0.00 0.00 0.00 0.00 0.00 0.00 0.00 0.00 0.00 0.00 0.00
0.00 0.00 0.00 0.00 0.00 0.00 0.00 0.00 0.00 0.00 0.00 0.00 0.00 0.00 0.00 0.00 0.00 0.00 0.00 0.00 0.00 0.00 0.00 0.00 0.00 0.00 0.00 0.00 0.00 0.00 0.00 0.00 0.00 0.00 0.00 0.00 0.00 0.00 0.00 0.00 0.00 0.00 0.00 0.00
0.00 0.00 0.00 0.00 0.00 0.00 0.00 0.00 0.00 0.00 0.00 0.00 0.00 0.00 0.00 0.00 0.00 0.00 0.00 0.00 0.00 0.00 0.00 0.00 0.00 0.00 0.00 0.00 0.00 0.00 0.00 0.00 0.00 0.00 0.00 0.00 0.00 0.00 0.00 0.00 0.00 0.00 0.00 0.00
0.00 0.00 0.00 0.00 0.00 0.00 0.00 0.00 0.00 0.00 0.01 0.00 0.00 0.00 0.00 0.00 0.00 0.00 0.00 0.00 0.00 0.00 0.00 0.00 0.00 0.00 0.00 0.00 0.00 0.00 0.01 0.01 0.00 0.00 0.00 0.00 0.00 0.00 0.00 0.00 0.00 0.00 0.00 0.00
0.00 0.00 0.00 0.00 0.00 0.00 0.00 0.00 0.00 0.00 0.00 0.00 0.00 0.00 0.00 0.00 0.00 0.00 0.00 0.00 0.00 0.00 0.00 0.00 0.00 0.00 0.00 0.00 0.00 0.00 0.00 0.01 0.00 0.00 0.00 0.00 0.00 0.00 0.00 0.00 0.00 0.00 0.00 0.00
0.00 0.00 0.00 0.00 0.00 0.00 0.00 0.00 0.00 0.00 0.00 0.00 0.00 0.00 0.00 0.00 0.00 0.00 0.00 0.00 0.00 0.00 0.00 0.00 0.00 0.00 0.00 0.00 0.00 0.00 0.00 0.00 0.01 0.00 0.00 0.00 0.00 0.00 0.00 0.00 0.00 0.00 0.00 0.00
0.00 0.00 0.00 0.00 0.00 0.00 0.00 0.00 0.00 0.00 0.00 0.00 0.00 0.00 0.00 0.00 0.00 0.00 0.00 0.00 0.00 0.00 0.00 0.00 0.00 0.01 0.01 0.00 0.00 0.00 0.00 0.00 0.01 0.00 0.00 0.00 0.00 0.00 0.00 0.00 0.00 0.00 0.00 0.00
0.00 0.00 0.00 0.00 0.00 0.00 0.00 0.00 0.00 0.00 0.00 0.00 0.00 0.00 0.00 0.00 0.00 0.00 0.00 0.00 0.00 0.00 0.00 0.00 0.03 0.03 0.01 0.01 0.00 0.00 0.00 0.00 0.01 0.00 0.00 0.00 0.00 0.00 0.00 0.01 0.00 0.01 0.00 0.00
0.00 0.00 0.00 0.00 0.00 0.00 0.00 0.00 0.00 0.00 0.00 0.00 0.00 0.00 0.00 0.00 0.00 0.00 0.00 0.00 0.00 0.00 0.00 0.00 0.01 0.04 0.01 0.00 0.01 0.00 0.00 0.00 0.00 0.00 0.00 0.00 0.00 0.00 0.00 0.00 0.00 0.00 0.00 0.00
0.00 0.00 0.00 0.00 0.00 0.00 0.00 0.00 0.00 0.00 0.00 0.00 0.00 0.00 0.00 0.00 0.00 0.00 0.00 0.00 0.00 0.00 0.00 0.00 0.00 0.02 0.05 0.01 0.00 0.00 0.00 0.00 0.00 0.00 0.00 0.00 0.00 0.01 0.00 0.00 0.00 0.00 0.00 0.00
0.00 0.00 0.00 0.00 0.00 0.00 0.00 0.00 0.00 0.00 0.00 0.00 0.00 0.00 0.00 0.00 0.00 0.00 0.00 0.00 0.00 0.00 0.00 0.00 0.00 0.00 0.00 0.00 0.00 0.00 0.00 0.01 0.00 0.00 0.00 0.00 0.00 0.00 0.00 0.01 0.01 0.00 0.00 0.00
0.00 0.00 0.00 0.00 0.00 0.00 0.00 0.00 0.00 0.00 0.00 0.00 0.00 0.00 0.00 0.00 0.00 0.00 0.00 0.00 0.00 0.00 0.00 0.00 0.00 0.00 0.00 0.00 0.00 0.00 0.00 0.01 0.01 0.00 0.00 0.00 0.00 0.00 0.02 0.02 0.00 0.00 0.00 0.00
0.00 0.00 0.00 0.00 0.00 0.00 0.00 0.00 0.00 0.00 0.00 0.00 0.00 0.00 0.00 0.00 0.00 0.00 0.00 0.00 0.00 0.00 0.00 0.00 0.00 0.00 0.00 0.00 0.00 0.00 0.00 0.00 0.00 0.01 0.02 0.00 0.00 0.01 0.02 0.01 0.00 0.00 0.00 0.00
0.00 0.00 0.00 0.00 0.00 0.00 0.00 0.00 0.00 0.00 0.00 0.00 0.00 0.00 0.00 0.00 0.00 0.00 0.00 0.00 0.00 0.00 0.00 0.00 0.00 0.00 0.00 0.00 0.00 0.00 0.00 0.00 0.00 0.00 0.00 0.00 0.03 0.02 0.01 0.00 0.01 0.01 0.03 0.03
0.00 0.00 0.00 0.00 0.00 0.00 0.00 0.00 0.00 0.00 0.00 0.00 0.00 0.00 0.00 0.00 0.00 0.00 0.00 0.00 0.00 0.00 0.00 0.00 0.00 0.00 0.00 0.00 0.00 0.00 0.00 0.00 0.00 0.00 0.00 0.00 0.00 0.03 0.05 0.01 0.00 0.00 0.02 0.05
0.00 0.00 0.00 0.00 0.00 0.00 0.00 0.00 0.00 0.00 0.00 0.00 0.00 0.00 0.00 0.00 0.00 0.00 0.00 0.00 0.00 0.00 0.00 0.00 0.00 0.00 0.00 0.00 0.00 0.00 0.00 0.00 0.00 0.00 0.00 0.00 0.00 0.00 0.00 0.01 0.01 0.02 0.02 0.02
0.00 0.00 0.00 0.00 0.00 0.00 0.00 0.00 0.00 0.00 0.00 0.00 0.00 0.00 0.00 0.00 0.00 0.00 0.00 0.00 0.00 0.00 0.00 0.00 0.00 0.00 0.00 0.00 0.00 0.00 0.00 0.00 0.00 0.00 0.00 0.00 0.00 0.00 0.00 0.00 0.00 0.00 0.00 0.01
0.00 0.00 0.00 0.00 0.00 0.00 0.00 0.00 0.00 0.00 0.00 0.00 0.00 0.00 0.00 0.00 0.00 0.00 0.00 0.00 0.00 0.00 0.00 0.00 0.00 0.00 0.00 0.00 0.00 0.00 0.00 0.00 0.00 0.00 0.00 0.00 0.00 0.00 0.00 0.00 0.00 0.00 0.00 0.00
0.00 0.00 0.00 0.00 0.00 0.00 0.00 0.00 0.00 0.00 0.00 0.00 0.00 0.00 0.00 0.00 0.00 0.00 0.00 0.00 0.00 0.00 0.00 0.00 0.00 0.00 0.00 0.00 0.00 0.00 0.00 0.00 0.00 0.00 0.00 0.00 0.00 0.00 0.00 0.00 0.00 0.01 0.05 0.08
0.00 0.00 0.00 0.00 0.00 0.00 0.00 0.00 0.00 0.00 0.00 0.00 0.00 0.00 0.00 0.00 0.00 0.00 0.00 0.00 0.00 0.00 0.00 0.00 0.00 0.00 0.00 0.00 0.00 0.00 0.00 0.00 0.00 0.00 0.00 0.00 0.00 0.00 0.00 0.00 0.00 0.00 0.00 0.03
0.00 0.00 0.00 0.00 0.00 0.00 0.00 0.00 0.00 0.00 0.00 0.00 0.00 0.00 0.00 0.00 0.00 0.00 0.00 0.00 0.00 0.00 0.00 0.00 0.01 0.00 0.00 0.00 0.00 0.00 0.00 0.00 0.00 0.00 0.00 0.00 0.00 0.00 0.00 0.00 0.00 0.00 0.00 0.00
0.00 0.00 0.00 0.00 0.00 0.00 0.00 0.00 0.00 0.00 0.00 0.00 0.00 0.00 0.00 0.00 0.00 0.00 0.00 0.00 0.00 0.00 0.00 0.00 0.00 0.00 0.00 0.00 0.00 0.00 0.00 0.00 0.00 0.00 0.00 0.00 0.00 0.00 0.00 0.00 0.00 0.00 0.00 0.00
0.00 0.00 0.00 0.00 0.00 0.00 0.00 0.00 0.00 0.00 0.00 0.00 0.00 0.00 0.00 0.00 0.00 0.00 0.00 0.00 0.00 0.00 0.00 0.00 0.00 0.00 0.00 0.00 0.00 0.00 0.00 0.00 0.00 0.00 0.00 0.00 0.00 0.00 0.00 0.00 0.00 0.00 0.00 0.00
0.00 0.00 0.00 0.00 0.00 0.00 0.00 0.00 0.00 0.00 0.00 0.00 0.00 0.00 0.00 0.00 0.00 0.00 0.00 0.00 0.00 0.00 0.00 0.00 0.00 0.00 0.00 0.00 0.00 0.00 0.00 0.00 0.00 0.00 0.00 0.00 0.00 0.00 0.00 0.00 0.00 0.00 0.00 0.00
MSLP
1009.17 1010.08 1010.36 1010.90 1011.32 1011.17 1011.22 1011.39 1011.36 1011.06 1010.98 1011.61 1011.97 1012.15 1011.96 1011.91 1012.14 1012.21 1012.49 1012.64 1012.47 1012.31 1012.51 1013.16 1013.74 1014.31 1014.85 1015.52 1016.11 1016.44 1016.83 1017.13 1017.40 1017.60 1017.83 1018.01 1017.88 1017.77 1017.81 1017.75 1017.73 1017.75 1017.74 1018.03
1009.77 1009.63 1009.60 1009.95 1010.57 1010.87 1010.91 1011.07 1011.13 1011.05 1011.10 1011.83 1011.99 1011.83 1011.69 1011.60 1011.51 1011.41 1011.87 1011.95 1012.08 1012.28 1012.66 1013.06 1013.50 1013.94 1014.47 1014.99 1015.63 1016.25 1016.55 1016.96 1017.27 1017.25 1017.35 1017.50 1017.50 1017.59 1017.63 1017.55 1017.75 1017.77 1017.72 1017.96
1009.57 1009.10 1008.96 1009.52 1010.12 1010.58 1010.55 1010.53 1010.61 1011.05 1011.53 1012.14 1012.18 1011.75 1011.11 1010.87 1010.83 1010.82 1011.05 1011.22 1011.59 1011.82 1012.25 1012.86 1013.27 1013.48 1013.91 1014.51 1015.07 1015.61 1016.16 1016.55 1016.88 1017.11 1017.27 1017.53 1017.52 1017.45 1017.73 1017.72 1017.80 1017.72 1017.68 1017.87
1009.36 1008.58 1008.72 1009.03 1009.42 1009.87 1010.00 1009.50 1009.96 1011.06 1011.88 1012.38 1012.36 1012.40 1011.02 1010.61 1010.57 1010.38 1010.33 1010.55 1011.03 1011.56 1011.87 1012.33 1012.65 1013.06 1013.53 1013.80 1014.58 1015.13 1015.59 1016.10 1016.42 1016.83 1017.15 1017.37 1017.38 1017.59 1017.52 1017.52 1017.49 1017.66 1017.67 1017.71
1008.53 1008.17 1008.27 1008.61 1008.36 1009.05 1008.92 1009.03 1009.98 1011.16 1012.11 1012.69 1012.84 1013.07 1010.80 1010.58 1010.36 1009.69 1009.57 1009.92 1010.31 1010.82 1011.17 1011.56 1011.78 1012.15 1012.81 1013.44 1014.05 1014.55 1015.22 1015.66 1016.06 1016.45 1016.65 1017.15 1017.42 1017.34 1017.34 1017.51 1017.59 1017.69 1017.60 1017.60
1008.07 1007.48 1007.29 1006.98 1007.33 1007.75 1008.63 1009.88 1011.03 1012.23 1012.97 1013.42 1012.37 1012.52 1010.37 1009.96 1008.99 1008.50 1008.61 1009.03 1009.36 1009.92 1010.61 1011.00 1011.49 1011.97 1012.47 1013.11 1013.76 1014.33 1014.89 1015.26 1015.71 1016.03 1016.49 1016.75 1017.13 1017.20 1017.36 1017.55 1017.62 1017.66 1017.74 1017.67
1007.88 1007.25 1006.63 1006.35 1006.91 1007.72 1008.69 1010.33 1012.19 1013.39 1013.95 1013.50 1012.37 1012.35 1009.63 1008.37 1007.97 1007.49 1007.48 1008.00 1008.50 1009.22 1010.10 1010.66 1011.11 1011.71 1012.35 1012.82 1013.27 1013.92 1014.43 1015.02 1015.33 1015.64 1016.08 1016.39 1016.77 1016.96 1017.19 1017.33 1017.46 1017.58 1017.71 1017.61
1007.98 1007.10 1006.23 1005.74 1006.09 1006.91 1008.39 1009.46 1011.15 1012.51 1013.61 1013.05 1012.37 1011.21 1008.39 1007.53 1007.11 1006.90 1006.85 1007.42 1008.25 1008.92 1009.56 1010.08 1010.45 1011.20 1011.79 1012.37 1013.03 1013.53 1013.99 1014.47 1014.93 1015.35 1015.61 1015.91 1016.32 1016.62 1016.80 1017.07 1017.30 1017.37 1017.40 1017.19
1007.73 1006.86 1005.55 1005.19 1005.17 1005.98 1008.12 1009.24 1009.72 1011.63 1012.90 1012.77 1011.62 1010.04 1007.92 1007.18 1007.01 1007.14 1007.16 1007.68 1008.09 1008.56 1009.13 1009.69 1010.36 1010.77 1011.39 1011.98 1012.61 1013.13 1013.59 1013.92 1014.34 1014.72 1015.17 1015.52 1015.92 1016.31 1016.42 1016.63 1016.88 1016.97 1017.08 1016.93
1007.03 1007.09 1005.53 1004.76 1005.17 1005.82 1006.53 1007.81 1009.68 1011.17 1012.52 1012.72 1011.55 1010.19 1008.31 1007.21 1007.03 1007.04 1007.40 1007.69 1008.24 1008.54 1009.16 1009.73 1010.30 1010.70 1011.12 1011.60 1012.29 1012.81 1013.27 1013.45 1013.67 1014.31 1014.79 1015.11 1015.35 1015.70 1015.88 1016.32 1016.50 1016.53 1016.62 1016.65
1006.71 1007.08 1006.07 1005.26 1005.20 1005.67 1006.77 1007.69 1009.35 1010.68 1011.65 1012.02 1011.28 1009.51 1006.74 1006.60 1006.54 1006.83 1007.00 1007.38 1007.80 1008.29 1008.87 1009.39 1009.90 1010.39 1010.69 1011.44 1012.22 1012.60 1012.98 1013.30 1013.57 1013.92 1014.28 1014.67 1014.96 1015.19 1015.41 1015.72 1015.95 1016.12 1016.38 1016.43
1005.75 1006.59 1006.51 1005.67 1005.02 1005.19 1005.63 1006.46 1007.91 1010.12 1011.57 1011.74 1010.70 1008.15 1005.95 1006.18 1006.25 1006.38 1006.55 1006.98 1007.49 1008.02 1008.61 1009.11 1009.68 1010.57 1011.11 1011.56 1012.05 1012.32 1012.62 1012.83 1012.96 1013.21 1013.61 1013.93 1014.28 1014.80 1015.12 1015.27 1015.48 1015.62 1015.68 1016.10
1005.37 1005.99 1006.39 1005.68 1005.47 1005.10 1005.38 1006.19 1007.36 1008.67 1009.98 1010.75 1010.28 1007.68 1005.95 1005.94 1006.02 1006.15 1006.57 1006.80 1007.37 1007.92 1008.55 1009.00 1009.68 1010.33 1010.69 1011.13 1011.51 1011.84 1012.07 1012.26 1012.57 1013.05 1013.37 1013.64 1013.85 1014.08 1014.31 1014.59 1014.83 1015.07 1015.24 1015.55
1004.40 1005.44 1005.51 1005.56 1005.00 1004.76 1005.47 1005.88 1006.87 1007.50 1009.24 1009.86 1008.91 1007.33 1005.90 1005.61 1005.71 1006.02 1006.29 1006.79 1007.25 1007.88 1008.42 1008.93 1009.43 1009.90 1010.56 1010.92 1011.28 1011.69 1011.81 1011.86 1012.21 1012.74 1013.13 1013.36 1013.54 1013.63 1013.83 1014.21 1014.55 1014.66 1014.79 1015.08
1004.58 1005.35 1005.14 1004.34 1004.03 1004.08 1004.35 1005.15 1005.94 1006.75 1007.09 1007.68 1007.24 1007.05 1005.59 1005.51 1005.55 1005.77 1006.25 1006.77 1007.32 1007.81 1008.32 1008.66 1009.20 1009.71 1010.21 1010.56 1011.01 1011.39 1011.51 1011.69 1012.07 1012.45 1012.78 1013.02 1013.44 1013.74 1013.95 1014.06 1014.21 1014.32 1014.63 1014.75
1004.77 1004.96 1005.08 1004.67 1004.11 1003.99 1004.08 1004.31 1004.83 1005.62 1006.05 1006.22 1006.13 1006.23 1004.94 1004.94 1005.54 1006.16 1006.46 1006.88 1007.35 1007.68 1008.00 1008.31 1008.84 1009.30 1009.63 1009.94 1010.51 1010.99 1011.31 1011.59 1011.89 1012.16 1012.31 1012.80 1013.31 1013.62 1013.88 1013.99 1013.96 1014.24 1014.22 1014.50
1005.43 1004.91 1005.03 1005.23 1004.62 1004.29 1004.14 1003.63 1003.98 1004.40 1004.68 1004.86 1005.29 1004.57 1004.74 1005.05 1005.35 1005.75 1006.21 1006.58 1006.95 1007.34 1007.62 1008.07 1008.52 1008.84 1009.06 1009.35 1009.87 1010.54 1011.03 1011.41 1011.73 1012.05 1012.27 1012.56 1013.02 1013.37 1013.72 1013.73 1013.98 1013.80 1013.88 1014.27
1005.45 1005.53 1005.08 1005.74 1005.27 1004.68 1003.02 1002.31 1002.60 1002.98 1003.24 1003.77 1003.91 1003.65 1003.84 1003.67 1004.07 1005.07 1005.59 1006.01 1006.49 1007.03 1007.56 1007.97 1008.27 1008.62 1008.85 1009.23 1009.68 1010.19 1010.71 1011.25 1011.65 1012.02 1012.25 1012.46 1012.62 1012.82 1013.04 1013.25 1013.24 1013.51 1013.73 1013.75
1005.19 1005.45 1005.42 1006.63 1006.31 1004.72 1002.90 1002.24 1002.14 1002.50 1002.88 1002.78 1003.14 1003.19 1003.80 1004.16 1004.51 1005.27 1005.46 1005.72 1006.08 1006.72 1007.27 1007.65 1007.90 1008.56 1008.92 1009.43 1009.97 1010.29 1010.78 1011.07 1011.48 1011.80 1011.98 1012.08 1012.39 1012.65 1012.87 1012.95 1013.07 1013.19 1013.30 1013.46
1004.70 1005.25 1004.99 1006.25 1006.20 1005.66 1003.57 1002.05 1001.65 1001.81 1002.43 1002.02 1002.54 1003.33 1003.58 1003.95 1005.21 1004.57 1004.93 1005.50 1006.19 1006.72 1007.22 1007.69 1008.11 1008.74 1009.22 1009.60 1009.94 1010.47 1010.90 1011.20 1011.36 1011.36 1011.41 1011.68 1011.99 1012.27 1012.50 1012.59 1012.73 1012.77 1012.80 1012.82
1005.25 1005.71 1005.39 1005.65 1005.10 1004.88 1003.14 1002.11 1002.08 1002.61 1002.65 1001.77 1002.17 1002.76 1003.40 1003.24 1003.27 1003.26 1004.29 1005.46 1005.88 1006.56 1007.30 1007.94 1008.46 1008.64 1009.01 1009.56 1009.92 1010.43 1010.86 1010.96 1010.80 1011.11 1011.40 1011.56 1011.78 1012.05 1012.20 1012.26 1012.33 1012.38 1012.45 1012.52
1005.93 1006.11 1006.02 1005.63 1005.27 1005.38 1003.95 1002.86 1003.07 1003.04 1001.93 1001.56 1001.97 1002.61 1002.84 1002.79 1003.29 1003.76 1004.28 1005.09 1005.82 1006.71 1007.46 1008.11 1008.72 1009.09 1009.39 1009.67 1010.01 1010.47 1010.59 1010.41 1010.83 1011.00 1011.24 1011.48 1011.69 1011.88 1012.04 1012.11 1011.98 1012.02 1012.13 1012.22
1007.21 1006.66 1006.11 1005.62 1004.53 1003.95 1004.21 1004.23 1003.99 1003.75 1003.04 1002.22 1001.95 1001.83 1002.60 1003.13 1003.58 1004.11 1004.70 1005.40 1006.06 1006.66 1007.57 1008.36 1008.60 1009.03 1009.27 1009.63 1010.03 1010.36 1010.23 1010.54 1010.73 1011.03 1011.33 1011.56 1011.65 1011.86 1011.95 1011.97 1011.97 1012.04 1012.04 1012.17
1007.73 1007.29 1006.70 1005.89 1005.40 1005.15 1004.65 1004.31 1004.55 1004.05 1003.68 1002.72 1002.04 1002.06 1001.91 1002.75 1003.50 1004.16 1004.88 1005.74 1006.42 1007.18 1007.83 1008.26 1008.68 1009.08 1009.36 1009.56 1009.84 1009.98 1010.24 1010.31 1010.68 1011.11 1011.38 1011.61 1011.66 1011.77 1011.84 1012.06 1012.14 1012.07 1011.96 1012.10
1008.79 1008.05 1007.11 1006.18 1005.84 1005.34 1005.18 1005.13 1004.95 1004.41 1003.52 1003.02 1002.26 1002.16 1001.86 1002.51 1003.54 1003.97 1005.10 1005.97 1006.65 1007.31 1007.96 1008.46 1008.96 1009.31 1009.51 1009.59 1009.72 1009.93 1010.11 1010.37 1010.80 1011.06 1011.25 1011.40 1011.51 1011.77 1011.92 1012.32 1012.67 1012.65 1012.50 1012.53
1008.60 1007.94 1007.35 1006.81 1006.22 1005.92 1005.64 1005.10 1004.71 1004.27 1003.99 1003.56 1002.92 1002.63 1002.29 1002.27 1003.15 1004.11 1005.18 1005.84 1006.67 1007.44 1008.07 1008.72 1009.16 1009.51 1009.56 1009.71 1009.94 1010.11 1010.29 1010.51 1010.86 1011.17 1011.41 1011.62 1011.75 1011.76 1011.82 1012.16 1012.66 1012.77 1012.70 1012.71
Thickness
5761 5743 5733 5735 5739 5746 5746 5738 5737 5748 5758 5745 5737 5737 5744 5751 5747 5747 5748 5750 5754 5760 5764 5760 5757 5755 5751 5747 5744 5743 5741 5739 5738 5737 5736 5736 5737 5740 5741 5743 5745 5748 5751 5752
5743 5734 5752 5753 5746 5744 5743 5739 5737 5747 5755 5745 5740 5740 5750 5754 5755 5760 5755 5754 5754 5759 5757 5757 5755 5755 5753 5750 5748 5745 5744 5741 5741 5743 5742 5742 5743 5743 5744 5745 5746 5748 5750 5753
5733 5749 5761 5755 5745 5739 5741 5738 5741 5742 5743 5741 5740 5736 5749 5759 5762 5764 5764 5764 5760 5759 5756 5755 5753 5755 5755 5752 5749 5748 5746 5746 5744 5745 5743 5743 5744 5745 5743 5745 5746 5748 5751 5752
5740 5758 5754 5747 5743 5744 5726 5756 5759 5743 5730 5716 5741 5708 5741 5751 5754 5763 5768 5766 5762 5758 5761 5759 5757 5755 5757 5758 5753 5751 5749 5748 5749 5747 5744 5743 5742 5740 5745 5747 5749 5749 5750 5752
5740 5751 5748 5741 5748 5751 5745 5764 5753 5744 5727 5724 5721 5710 5734 5745 5743 5759 5768 5769 5767 5765 5765 5763 5764 5763 5762 5761 5757 5755 5750 5748 5748 5748 5747 5743 5743 5744 5746 5747 5747 5747 5749 5751
5749 5769 5764 5761 5766 5765 5760 5744 5733 5718 5714 5697 5726 5717 5732 5741 5755 5767 5771 5773 5773 5770 5767 5768 5768 5766 5761 5761 5758 5754 5752 5750 5748 5748 5746 5746 5744 5746 5745 5745 5746 5747 5749 5752
5745 5751 5765 5773 5759 5761 5748 5722 5684 5690 5687 5689 5716 5712 5739 5768 5774 5778 5777 5777 5779 5775 5769 5765 5765 5761 5757 5758 5759 5757 5754 5750 5751 5751 5749 5748 5747 5747 5746 5747 5747 5747 5748 5752
5717 5717 5752 5772 5764 5749 5740 5733 5697 5692 5681 5700 5715 5708 5747 5778 5782 5785 5785 5782 5777 5773 5771 5768 5768 5763 5761 5761 5758 5758 5756 5754 5753 5752 5753 5752 5749 5748 5748 5748 5747 5748 5749 5754
5711 5723 5766 5775 5780 5769 5743 5725 5743 5704 5702 5704 5715 5735 5765 5776 5779 5779 5777 5775 5774 5773 5772 5770 5766 5765 5764 5762 5760 5759 5758 5758 5756 5756 5755 5754 5751 5750 5751 5752 5750 5750 5752 5754
5741 5720 5761 5778 5777 5772 5758 5756 5724 5710 5699 5701 5707 5717 5728 5767 5773 5775 5772 5770 5769 5771 5769 5768 5764 5763 5764 5763 5760 5759 5759 5759 5761 5758 5757 5757 5755 5754 5755 5754 5753 5753 5754 5755
5739 5733 5745 5768 5759 5749 5747 5738 5723 5720 5707 5694 5697 5724 5765 5771 5778 5774 5777 5775 5770 5767 5769 5769 5767 5765 5767 5763 5757 5756 5757 5758 5759 5759 5759 5758 5758 5758 5759 5757 5757 5756 5756 5757
5750 5727 5721 5741 5768 5772 5769 5756 5741 5716 5713 5699 5704 5731 5791 5783 5783 5784 5781 5781 5775 5775 5774 5773 5770 5762 5759 5758 5756 5757 5758 5760 5763 5763 5762 5762 5762 5760 5758 5759 5759 5759 5759 5757
5748 5728 5711 5726 5745 5764 5763 5756 5741 5727 5716 5704 5707 5729 5784 5784 5783 5784 5783 5783 5778 5776 5773 5772 5768 5764 5763 5762 5761 5760 5762 5764 5764 5761 5759 5761 5761 5761 5760 5759 5760 5760 5759 5759
5761 5726 5734 5725 5734 5752 5750 5754 5745 5743 5714 5709 5717 5750 5778 5787 5785 5786 5787 5785 5780 5778 5775 5772 5768 5767 5763 5763 5762 5761 5763 5765 5765 5761 5758 5757 5754 5756 5760 5759 5757 5759 5759 5758
5745 5727 5731 5748 5760 5765 5761 5755 5747 5746 5740 5740 5749 5745 5772 5780 5784 5787 5787 5784 5781 5778 5776 5773 5770 5768 5766 5765 5763 5762 5763 5763 5761 5757 5755 5755 5750 5749 5754 5754 5755 5756 5755 5755
5732 5729 5730 5742 5754 5756 5754 5757 5753 5756 5742 5754 5754 5750 5778 5785 5783 5782 5783 5781 5779 5778 5778 5778 5776 5772 5770 5770 5766 5764 5762 5762 5759 5756 5756 5753 5748 5748 5748 5746 5750 5750 5750 5750
5719 5724 5721 5719 5738 5744 5732 5746 5752 5756 5756 5756 5745 5771 5776 5778 5781 5780 5780 5781 5780 5778 5779 5778 5776 5776 5775 5772 5770 5764 5762 5759 5757 5754 5752 5749 5746 5743 5740 5742 5742 5741 5742 5744
5713 5712 5710 5702 5719 5700 5748 5771 5771 5766 5768 5766 5773 5779 5783 5790 5795 5787 5785 5781 5779 5777 5776 5776 5776 5776 5776 5774 5770 5766 5761 5756 5753 5749 5748 5746 5745 5743 5742 5740 5740 5738 5737 5741
5712 5706 5692 5681 5683 5709 5749 5761 5761 5758 5758 5773 5775 5784 5781 5782 5787 5785 5783 5783 5781 5774 5775 5775 5776 5774 5772 5768 5764 5763 5758 5755 5750 5747 5745 5745 5742 5739 5737 5737 5737 5735 5735 5737
5705 5696 5706 5683 5674 5680 5726 5764 5775 5774 5737 5783 5781 5776 5776 5780 5755 5772 5783 5781 5777 5775 5772 5770 5770 5767 5765 5762 5761 5756 5751 5748 5746 5745 5744 5742 5740 5736 5734 5734 5734 5734 5735 5735
5679 5678 5684 5687 5684 5698 5737 5760 5766 5726 5741 5782 5780 5778 5778 5778 5785 5793 5785 5776 5776 5772 5767 5765 5764 5763 5761 5757 5754 5749 5744 5742 5743 5741 5738 5736 5734 5731 5731 5732 5732 5732 5732 5731
5668 5665 5668 5674 5680 5667 5725 5747 5735 5745 5769 5782 5780 5778 5783 5786 5784 5784 5782 5775 5771 5765 5762 5760 5755 5753 5753 5752 5749 5744 5742 5745 5739 5736 5733 5731 5729 5727 5726 5726 5728 5728 5728 5728
5653 5661 5668 5681 5698 5710 5719 5724 5733 5743 5754 5768 5777 5782 5779 5777 5778 5776 5772 5768 5765 5763 5756 5752 5751 5749 5749 5747 5744 5739 5740 5737 5733 5729 5726 5724 5723 5721 5721 5720 5721 5721 5723 5722
5648 5657 5661 5675 5687 5695 5707 5717 5724 5734 5741 5758 5773 5775 5783 5777 5776 5771 5765 5760 5758 5753 5748 5747 5745 5743 5743 5742 5740 5737 5733 5732 5726 5721 5718 5717 5717 5715 5715 5715 5714 5717 5719 5718
5630 5641 5654 5666 5680 5690 5697 5703 5713 5727 5742 5751 5766 5772 5777 5777 5770 5769 5758 5753 5751 5747 5743 5741 5737 5736 5736 5736 5734 5732 5730 5726 5720 5716 5713 5712 5712 5710 5710 5705 5703 5705 5707 5707
5624 5635 5644 5652 5671 5677 5685 5700 5710 5720 5730 5740 5751 5760 5769 5775 5768 5762 5755 5750 5747 5742 5737 5733 5731 5728 5729 5728 5726 5724 5722 5719 5715 5709 5705 5702 5700 5702 5702 5700 5696 5692 5693 5693